Retour au catalogue

STARLINK-2411

ActifCommunicationsVLEO
NORAD 47826·PAYLOAD·🇺🇸 United States

Lancé Mar 11, 2021 depuis Cape Canaveral Space Force Station

Loading…

Prochains Passages (prochaines 24 heures)

TLE

FraisSource: CelesTrak SupGP

Époque: Sep 14, 2026, 21:53 UTC

1 47826C 21018AR  26257.91229167  .00035734  00000+0  11493-2 0  2576
2 47826  53.1568  84.7845 0001217  92.0014  23.4545 15.31680286    14

Suivez STARLINK-2411 en temps réel avec AllMySat

Download on the App Store